Ban Baen Chado, Thailand

9:20 PM +07 on April 29, 2017 (GMT +0700)
Ban Baen Chado

Weather History for 48456 - February, 2014

Change the Weather History Date:

Wednesday, February 19, 2014

  Actual Average Record
Temperature  
Mean Temperature 85 °F -  
Max Temperature 92 °F 92 °F - ()
Min Temperature 78 °F 75 °F - ()
Cooling Degree Days 20    
Growing Degree Days 35 (Base 50)    
Moisture  
Dew Point 74 °F    
Average Humidity 75    
Maximum Humidity 89    
Minimum Humidity 40    
Precipitation  
Precipitation 0.31 in 0.03 in - ()
Sea Level Pressure  
Sea Level Pressure 29.85 in    
Wind  
Wind Speed 6 mph ()    
Max Wind Speed 15 mph    
Max Gust Speed -    
Visibility 6.0 miles    
Events Rain    
T = Trace of Precipitation, MM = Missing Value Source: Averaged Metar Reports

Daily Weather History Graph

Daily Weather History Graph

Search for Another Location

Airport or City:

Trip Planner

Search our weather history database for the weather conditions in past years. The results will help you decide how hot, cold, wet, or windy it might be!

Date:

Astronomy

Feb. 19, 2014 Rise Set
Actual Time 6:39 AM +07 6:23 PM +07
Civil Twilight 6:17 AM +07 6:45 PM +07
Nautical Twilight 5:52 AM +07 7:10 PM +07
Astronomical Twilight 5:27 AM +07 7:35 PM +07
Moon 9:54 PM +07 (2/19) 9:12 AM +07 (2/19)
Length of Visible Light 12h 27m
Length of Day
11h 44m
Waning Gibbous, 84% of the Moon is Illuminated
Feb 19
Waning Gibbous
Feb 23
Last Quarter
Mar 1
New
Mar 8
First Quarter
Mar 17
Full

Hourly Weather History & Observations

Time (+07) Temp. Heat Index Dew Point Humidity Pressure Visibility Wind Dir Wind Speed Gust Speed Precip Events Conditions
12:00 AM 80.6 °F 86.2 °F 75.2 °F 84% 29.89 in - SSW 9.2 mph - N/A   Clear
12:30 AM 80.6 °F 85.4 °F 73.4 °F 79% 29.89 in - SSW 8.1 mph - N/A   Clear
1:00 AM 79 °F - 74 °F 79% 29.88 in 6 mi SSW 8.1 mph - -   Scattered Clouds
1:00 AM 78.8 °F - 73.4 °F 83% 29.89 in - SSW 8.1 mph - N/A   Clear
1:30 AM 78.8 °F - 73.4 °F 83% 29.86 in - SSW 6.9 mph - N/A   Clear
2:00 AM 78.8 °F - 73.4 °F 83% 29.86 in 6.2 mi SSW 5.8 mph - N/A   Mostly Cloudy
2:30 AM 78.8 °F - 73.4 °F 83% 29.86 in 6.2 mi South 8.1 mph - N/A   Mostly Cloudy
3:00 AM 78.8 °F - 73.4 °F 83% 29.86 in 6.2 mi South 6.9 mph - N/A   Mostly Cloudy
3:30 AM 78.8 °F - 73.4 °F 83% 29.86 in 6.2 mi South 5.8 mph - N/A   Mostly Cloudy
4:00 AM 79 °F - 74 °F 81% 29.85 in 6 mi South 5.8 mph - -   Scattered Clouds
4:00 AM 78.8 °F - 73.4 °F 83% 29.86 in 6.2 mi South 5.8 mph - N/A   Mostly Cloudy
4:30 AM 78.8 °F - 73.4 °F 83% 29.83 in 6.2 mi SSE 5.8 mph - N/A   Mostly Cloudy
5:00 AM 78.8 °F - 73.4 °F 83% 29.83 in 6.2 mi SSE 5.8 mph - N/A   Mostly Cloudy
5:30 AM 78.8 °F - 73.4 °F 83% 29.86 in 6.2 mi SSE 5.8 mph - N/A   Mostly Cloudy
6:00 AM 78.8 °F - 75.2 °F 89% 29.86 in 6.2 mi South 5.8 mph - N/A   Mostly Cloudy
6:30 AM 78.8 °F - 73.4 °F 83% 29.86 in 6.2 mi SSE 6.9 mph - N/A   Mostly Cloudy
7:00 AM 79 °F - 74 °F 81% 29.87 in 6 mi SSE 4.6 mph - -   Scattered Clouds
7:00 AM 78.8 °F - 73.4 °F 83% 29.86 in 6.2 mi SSE 4.6 mph - N/A   Mostly Cloudy
7:30 AM 78.8 °F - 73.4 °F 83% 29.89 in 6.2 mi SE 4.6 mph - N/A   Mostly Cloudy
8:00 AM 80.6 °F 85.4 °F 73.4 °F 79% 29.89 in 6.2 mi SE 5.8 mph - N/A   Mostly Cloudy
8:30 AM 80.6 °F 86.2 °F 75.2 °F 84% 29.89 in 6.2 mi ESE 5.8 mph - N/A   Mostly Cloudy
9:00 AM 82.4 °F 89.5 °F 75.2 °F 79% 29.89 in 6.2 mi South 6.9 mph - N/A   Mostly Cloudy
9:30 AM 84.2 °F 90.9 °F 73.4 °F 70% 29.92 in 6.2 mi South 9.2 mph - N/A   Mostly Cloudy
10:00 AM 85 °F - 73 °F 59% 29.91 in 6 mi SSE 8.1 mph - -   Scattered Clouds
10:00 AM 86.0 °F 93.4 °F 73.4 °F 66% 29.92 in 6.2 mi SSE 8.1 mph - N/A   Mostly Cloudy
10:30 AM 86.0 °F 93.4 °F 73.4 °F 66% 29.92 in 6.2 mi South 8.1 mph - N/A   Mostly Cloudy
11:00 AM 87.8 °F 95.6 °F 73.4 °F 62% 29.89 in 6.2 mi SW 5.8 mph - N/A   Mostly Cloudy
11:30 AM 89.6 °F 98.2 °F 73.4 °F 59% 29.89 in 6.2 mi South 4.6 mph - N/A   Mostly Cloudy
12:00 PM 89.6 °F 96.2 °F 71.6 °F 55% 29.86 in 6.2 mi ESE 3.5 mph - N/A   Mostly Cloudy
12:30 PM 91.4 °F 98.4 °F 71.6 °F 52% 29.86 in 6.2 mi SSW 6.9 mph - N/A   Mostly Cloudy
1:00 PM 92 °F - 71 °F 40% 29.85 in 6 mi SSW 5.8 mph - -   Scattered Clouds
1:00 PM 91.4 °F 100.1 °F 73.4 °F 55% 29.83 in 6.2 mi SSW 5.8 mph - N/A   Mostly Cloudy
1:30 PM 91.4 °F 98.4 °F 71.6 °F 52% 29.83 in 6.2 mi SSE 4.6 mph - N/A   Mostly Cloudy
2:00 PM 91.4 °F 98.4 °F 71.6 °F 52% 29.80 in 6.2 mi WSW 6.9 mph - N/A   Mostly Cloudy
2:30 PM 91.4 °F 98.4 °F 71.6 °F 52% 29.80 in 6.2 mi SSW 5.8 mph - N/A   Mostly Cloudy
3:00 PM 89.6 °F 94.7 °F 69.8 °F 52% 29.77 in 6.2 mi NNW 5.8 mph - N/A   Mostly Cloudy
3:30 PM 87.8 °F 93.8 °F 71.6 °F 58% 29.77 in 5.0 mi NNW 8.1 mph - N/A Rain Light Rain
4:00 PM 80 °F - 74 °F 76% 29.79 in 4 mi SW 15.0 mph - - Rain Light Rain
4:00 PM 80.6 °F 85.4 °F 73.4 °F 79% 29.77 in 3.7 mi SW 15.0 mph - N/A Rain Light Rain
4:30 PM 80.6 °F 85.4 °F 73.4 °F 79% 29.77 in 5.0 mi ESE 9.2 mph - N/A Rain Light Rain
5:00 PM 82.4 °F 89.5 °F 75.2 °F 79% 29.77 in 6.2 mi WNW 3.5 mph - N/A   Mostly Cloudy
5:30 PM 82.4 °F 89.5 °F 75.2 °F 79% 29.80 in 6.2 mi SSW 3.5 mph - N/A   Mostly Cloudy
6:00 PM 84.2 °F 92.3 °F 75.2 °F 74% 29.80 in 6.2 mi West 5.8 mph - N/A   Mostly Cloudy
6:30 PM 82.4 °F 89.5 °F 75.2 °F 79% 29.80 in 6.2 mi SSE 3.5 mph - N/A   Mostly Cloudy
7:00 PM 83 °F - 76 °F 73% 29.82 in 6 mi SSE 4.6 mph - -   Partly Cloudy
7:00 PM 82.4 °F 90.9 °F 77.0 °F 84% 29.80 in 6.2 mi SSE 4.6 mph - N/A   Mostly Cloudy
7:30 PM 84.2 °F 92.3 °F 75.2 °F 74% 29.83 in 6.2 mi South 6.9 mph - N/A   Mostly Cloudy
8:00 PM 82.4 °F 89.5 °F 75.2 °F 79% 29.83 in 6.2 mi South 8.1 mph - N/A   Mostly Cloudy
8:30 PM 82.4 °F 89.5 °F 75.2 °F 79% 29.83 in 6.2 mi South 3.5 mph - N/A   Mostly Cloudy
9:00 PM 80.6 °F 85.4 °F 73.4 °F 79% 29.83 in 6.2 mi South 5.8 mph - N/A   Scattered Clouds
9:30 PM 80.6 °F 86.2 °F 75.2 °F 84% 29.86 in 6.2 mi South 6.9 mph - N/A   Scattered Clouds
10:00 PM 80 °F - 75 °F 81% 29.87 in 6 mi SSE 4.6 mph - -   Partly Cloudy
10:00 PM 80.6 °F 86.2 °F 75.2 °F 84% 29.86 in 6.2 mi SSE 4.6 mph - N/A   Scattered Clouds
10:30 PM 80.6 °F 86.2 °F 75.2 °F 84% 29.86 in 6.2 mi South 4.6 mph - N/A   Scattered Clouds
11:00 PM 80.6 °F 86.2 °F 75.2 °F 84% 29.86 in 6.2 mi South 5.8 mph - N/A   Scattered Clouds
11:30 PM 80.6 °F 86.2 °F 75.2 °F 84% 29.86 in 6.2 mi South 6.9 mph - N/A   Scattered Clouds